Regional Weather Roundup
Issued by NWS

Home | Current Version | Previous Version | Graphics & Text | Print | Product List | Glossary On
Versions: 1 2 3 4 5 6 7 8 9 10 11 12 13 14 15 16 17 18 19 20 21 22 23 24 25 26 27 28 29 30 31 32 33 34 35 36 37 38 39 40 41 42 43 44 45 46 47 48 49 50
000
ASUS43 KDTX 291601
RWRMI
MICHIGAN HOURLY REGIONAL WEATHER ROUNDUP
NATIONAL WEATHER SERVICE DETROIT/PONTIAC MI
1200 PM EDT WED MAR 29 2017

NOTE: "FAIR" INDICATES FEW OR NO CLOUDS BELOW 12,000 FEET WITH NO
SIGNIFICANT WEATHER AND/OR OBSTRUCTION TO VISIBILITY.

MIZ047>049-052>055-059>063-066>070-074>076-081>083-291700-
SOUTHEAST LOWER MICHIGAN

CITY           SKY/WX    TMP DP  RH WIND       PRES   REMARKS
ADRIAN         SUNNY     48  34  58 E9        30.29R
ALMA           SUNNY     50  31  49 NE7       30.30S
ANN ARBOR      SUNNY     51  34  52 E10       30.27S
BAD AXE        SUNNY     44  36  74 N8        30.31F
CARO           SUNNY     47  38  70 N7        30.29F
DETROIT CITY   SUNNY     50  31  48 E9        30.29F
DETROIT        MOSUNNY   51  32  48 E9        30.30R
FLINT          SUNNY     51  35  54 VRB7      30.29F
GROSSE ILE     SUNNY     49  35  56 E5        30.28S
HILLSDALE      SUNNY     48  32  53 E13       30.25F
HOWELL         SUNNY     49  32  50 NE6       30.27F

CITY           SKY/WX    TMP DP  RH WIND       PRES   REMARKS
JACKSON        SUNNY     51  31  46 SE12      30.26F
LAMBERTVILLE   SUNNY     49  37  64 SE9       30.28S
LANSING        SUNNY     50  33  52 E10       30.29S
LAPEER         FAIR      50  32  49 NE3       30.28F
MASON          SUNNY     49  36  61 E8        30.28S
MONROE         SUNNY     49  35  59 E6        30.28S
MT. CLEMENS    MOSUNNY   49  36  59 VRB6      30.26F
PONTIAC        MOSUNNY   51  31  46 NE10      30.26F
PORT HOPE        N/A     38  32  79 NE10      30.31S WCI  31
PORT HURON     SUNNY     50  30  46 NE5       30.29F
TRI CITIES     SUNNY     46  35  65 NE14      30.32S
MIDLAND        FAIR      49  33  54 E6        30.31S
TROY           SUNNY     51  29  42 NE8       30.29F
SAGINAW HB     SUNNY     46  34  61 N13       30.31S
$$
MIZ043>046-050>051-056>058-064>065-071>073-077>080-291700-
SOUTHWEST LOWER MICHIGAN

CITY           SKY/WX    TMP DP  RH WIND       PRES   REMARKS
BATTLE CREEK   SUNNY     50  33  52 E8        30.28R
BENTON HARBOR  MOSUNNY   52  34  50 E13       30.26R
BIG RAPIDS     MOSUNNY   50  30  46 SE6       30.28F
COLDWATER      SUNNY     51  32  48 E12       30.27R
FREMONT        FAIR      49  30  46 NE3       30.30R
HOLLAND        MOSUNNY   48  34  58 E10       30.30R
GRAND RAPIDS   CLOUDY    50  36  58 E12       30.29R
IONIA          FAIR      49  32  52 E7        30.29S
KALAMAZOO      MOSUNNY   50  31  48 E10       30.28S
LUDINGTON      MOSUNNY   50  33  50 NE3       30.30R
MARSHALL       SUNNY     51  32  48 E9        30.26F
MOUNT PLEASANT SUNNY     51  31  46 N6        30.28S
MUSKEGON       PTSUNNY   52  32  46 E8        30.30S
SOUTH HAVEN    CLOUDY    51  34  51 E7        30.27S
$$
MIZ016>042-291700-
NORTHERN LOWER MICHIGAN

CITY           SKY/WX    TMP DP  RH WIND       PRES   REMARKS
ALPENA         SUNNY     42  29  59 NE9       30.37S
BEAVER ISLAND  MOSUNNY   37  28  68 NE12      30.37R WCI  30
BELLAIRE       MOSUNNY   43  31  62 N5        30.33F
CADILLAC       MOSUNNY   48  26  41 NE8       30.27F
CHARLEVOIX     CLOUDY    40  32  74 SE5       30.37F
FRANKFORT      CLOUDY    46  31  54 NE7       30.32F
GAYLORD        MOSUNNY   41  29  62 NE9       30.31F
HARBOR SPRINGS CLOUDY    40  31  69 E13       30.34F WCI  32
HOUGHTON LAKE  SUNNY     47  28  47 NE9       30.30F
MANISTEE       CLOUDY    49  29  46 NE10      30.31S
OSCODA         MOSUNNY   42  29  62 NE17      30.35R
PELLSTON       CLOUDY    40  27  59 E9        30.35F WCI  34
ROGERS CITY    SUNNY     37  28  69 NE9       30.39S WCI  30
TRAVERSE CITY  FOG       34  33  96 VRB3      30.33F VSB 1
$$
MIZ007>008-015-291700-
EASTERN UPPER MICHIGAN

CITY           SKY/WX    TMP DP  RH WIND       PRES   REMARKS
KINROSS        SUNNY     36  20  52 E6        30.38F WCI  31
MACKINAC ISLAN SUNNY     35  27  74 NE10      30.36F WCI  27
NEWBERRY       CLOUDY    36  24  61 NE7       30.36F WCI  31
S. S. MARIE    SUNNY     39  20  46 NE6       30.38F WCI  35
MUNISING         N/A     32  28  85 N9        30.39S WCI  24
$$
MIZ004>006-011>014-085-291700-
CENTRAL UPPER MICHIGAN

CITY           SKY/WX    TMP DP  RH WIND       PRES   REMARKS
MANISTIQUE     CLOUDY    40  25  56 N7        30.36S
ESCANABA       MOSUNNY   39  27  62 NE7       30.38R WCI  34
MENOMINEE        N/A    N/A N/A N/A MISG        N/A
SAWYER-GWINN   SUNNY     34  27  75 NE10      30.37S WCI  26
$$
MIZ001>003-009>011-084-291700-
WESTERN UPPER MICHIGAN

CITY           SKY/WX    TMP DP  RH WIND       PRES   REMARKS
IRON MOUNTAIN  CLOUDY    41  24  51 CALM      30.35R
HOUGHTON       PTSUNNY   33  25  72 E12       30.38S WCI  24
COPPER HARBOR    N/A     34  24  67 VRB6      30.41F WCI  29
IRONWOOD       CLOUDY    45  27  49 SE8       30.31S
$$

ABBREVIATIONS USED IN REMARKS
   TC - TEMPERATURE IN CELSIUS
  WCI - WIND CHILL INDEX
   HX - HEAT INDEX
  VSB - VISIBILITY




USA.gov is the U.S. government's official web portal to all federal, state and local government web resources and services.